This demonstration page uses our WeatherBlox Daily Observations layout. Learn more.

39.01783, -85.05884

Hourly Observations for November 3, 2019

Temp ( °F °C ) Dew Point ( °F °C ) Humidity (%) Winds ( mph kmh ) Pressure ( in mb ) Visibility ( mi km ) Precip ( " mm )
12:52 am 00:52 Mostly Cloudy 37 2.8 27 -2.8 67 67 SW 5 7 30.23 1024 10 16.0934 0 0
1:52 am 01:52 Clear 35 1.7 26 -3.3 70 70 SW 6 9 30.23 1024 10 16.0934 0 0
1:52 am 01:52 Partly Cloudy 36 2.2 27 -2.8 70 70 SW 5 7 30.22 1024 10 16.0934 0 0
2:52 am 02:52 Mostly Cloudy 35 1.7 27 -2.8 72 72 SW 5 7 30.22 1024 10 16.0934 0 0
3:52 am 03:52 Partly Cloudy 34 1.1 26 -3.3 73 73 WSW 3 6 30.23 1024 10 16.0934 0 0
4:52 am 04:52 Partly Cloudy 34 1.1 26 -3.3 73 73 SW 6 9 30.24 1024 10 16.0934 0 0
5:52 am 05:52 Clear 32 0 26 -3.3 79 79 SW 5 7 30.25 1024 10 16.0934 0 0
6:52 am 06:52 Clear 33 0.6 26 -3.3 75 75 SW 3 6 30.25 1025 10 16.0934 0 0
7:52 am 07:52 Sunny 31 -0.6 27 -2.8 85 85 SSW 5 7 30.27 1025 10 16.0934 0 0
8:52 am 08:52 Sunny 39 3.9 29 -1.7 67 67 SSW 5 7 30.27 1025 10 16.0934 0 0
9:52 am 09:52 Sunny 42 5.6 30 -1.1 62 62 SW 6 9 30.29 1026 10 16.0934 0 0
10:52 am 10:52 Sunny 46 7.8 29 -1.7 51 51 SW 7 11 30.28 1025 10 16.0934 0 0
11:52 am 11:52 Partly Cloudy 49 9.4 29 -1.7 46 46 undefined N/A 30.27 1025 10 16.0934 0 0
12:52 pm 12:52 Partly Cloudy 49 9.4 26 -3.3 41 41 VRB 5 7 30.24 1024 10 16.0934 0 0
1:52 pm 13:52 Mostly Sunny 52 11.1 27 -2.8 38 38 SW 9 15 30.2 1023 10 16.0934 0 0
2:52 pm 14:52 Mostly Sunny 52 11.1 27 -2.8 38 38 S 12 19 30.18 1022 10 16.0934 0 0
3:52 pm 15:52 Mostly Sunny 52 11.1 25 -3.9 35 35 SSW 13 20 30.18 1022 10 16.0934 0 0
4:52 pm 16:52 Partly Cloudy 50 10 27 -2.8 41 41 SSW 12 19 30.16 1022 10 16.0934 0 0
5:52 pm 17:52 Partly Cloudy 46 7.8 28 -2.2 50 50 S 5 7 30.16 1022 10 16.0934 0 0
6:52 pm 18:52 Partly Cloudy 44 6.7 28 -2.2 53 53 S 7 11 30.16 1021 10 16.0934 0 0
7:52 pm 19:52 Clear 44 6.7 27 -2.8 51 51 S 6 9 30.17 1022 10 16.0934 0 0
8:52 pm 20:52 Mostly Cloudy 44 6.7 28 -2.2 53 53 S 8 13 30.16 1021 10 16.0934 0 0
9:52 pm 21:52 Cloudy 43 6.1 29 -1.7 58 58 S 6 9 30.16 1021 10 16.0934 0 0
10:52 pm 22:52 Cloudy 42 5.6 29 -1.7 60 60 S 6 9 30.15 1021 10 16.0934 0 0
11:52 pm 23:52 Mostly Cloudy 42 5.6 28 -2.2 58 58 S 5 7 30.14 1021 10 16.0934 0 0

Powered by AerisWeather